Estación de Petorca
Ultimos registro cada 15 minutos 47
| N° | Estación | Fecha / Hora | Temperatura | Humedad | Lluvia | Velocidad | Dirección | Radiación | Presion |
| 47 | Petorca | 04-05-2026 11:30 | 22,7 | 33,7 | 0 | 0,5 | 185 | 544,4 | 984,9 |
| 46 | Petorca | 04-05-2026 11:15 | 22,7 | 32,2 | 0 | 0 | 191 | 628,1 | 985 |
| 45 | Petorca | 04-05-2026 11:00 | 22 | 32,9 | 0 | 0 | 197 | 593,1 | 985,3 |
| 44 | Petorca | 04-05-2026 10:45 | 21,3 | 35,6 | 0 | 0 | 233 | 563,1 | 985,3 |
| 43 | Petorca | 04-05-2026 10:30 | 19,8 | 36,8 | 0 | 0,5 | 216 | 486,9 | 985,5 |
| 42 | Petorca | 04-05-2026 10:15 | 20 | 36 | 0 | 0 | 227 | 526,9 | 985,3 |
| 41 | Petorca | 04-05-2026 10:00 | 18,7 | 37,9 | 0 | 0 | 219 | 309,4 | 985,5 |
| 40 | Petorca | 04-05-2026 09:45 | 18,3 | 39,9 | 0 | 0 | 149 | 449,4 | 985,4 |
| 39 | Petorca | 04-05-2026 09:30 | 17,5 | 41,6 | 0 | 0 | 117 | 208,1 | 985,4 |
| 38 | Petorca | 04-05-2026 09:15 | 17,3 | 41,2 | 0 | 0 | 91 | 343,1 | 985,4 |
| 37 | Petorca | 04-05-2026 09:00 | 15,1 | 46,7 | 0 | 0 | 74 | 299,4 | 985,3 |
| 36 | Petorca | 04-05-2026 08:45 | 13,4 | 53,2 | 0 | 0 | 29 | 241,9 | 985,3 |
| 35 | Petorca | 04-05-2026 08:30 | 11,2 | 57,3 | 0 | 0 | 39 | 196,9 | 985,4 |
| 34 | Petorca | 04-05-2026 08:15 | 8,6 | 63,2 | 0 | 0 | 352 | 30,6 | 985,4 |
| 33 | Petorca | 04-05-2026 08:00 | 9,6 | 57,2 | 0 | 0 | 10 | 25,6 | 985,3 |
| 32 | Petorca | 04-05-2026 07:45 | 7,9 | 62,7 | 0 | 0 | 25 | 13,1 | 985,1 |
| 31 | Petorca | 04-05-2026 07:30 | 6,6 | 68,7 | 0 | 0 | 41 | 4,4 | 985,4 |
| 30 | Petorca | 04-05-2026 07:15 | 6,5 | 70 | 0 | 0 | 39 | 1,9 | 985,2 |
| 29 | Petorca | 04-05-2026 07:00 | 6,9 | 67,8 | 0 | 0 | 348 | 0,6 | 985,4 |
| 28 | Petorca | 04-05-2026 06:45 | 6,7 | 68,8 | 0 | 0 | 55 | 0,6 | 985,4 |
| 27 | Petorca | 04-05-2026 06:30 | 7,6 | 62,9 | 0 | 0 | 18 | 0,6 | 985,2 |
| 26 | Petorca | 04-05-2026 06:15 | 7,2 | 66 | 0 | 0 | 14 | 0,6 | 985,1 |
| 25 | Petorca | 04-05-2026 06:00 | 8,3 | 63,3 | 0 | 0,5 | 44 | 0,6 | 985,1 |
| 24 | Petorca | 04-05-2026 05:45 | 7,8 | 64,4 | 0 | 0,5 | 22 | 0,6 | 985 |
| 23 | Petorca | 04-05-2026 05:30 | 7 | 68,7 | 0 | 0 | 32 | 0,6 | 985,1 |
| 22 | Petorca | 04-05-2026 05:15 | 6,9 | 70,3 | 0 | 0 | 32 | 0,6 | 985,1 |
| 21 | Petorca | 04-05-2026 05:00 | 6,6 | 71,4 | 0 | 0 | 35 | 0,6 | 984,9 |
| 20 | Petorca | 04-05-2026 04:45 | 7,5 | 69,4 | 0 | 0 | 348 | 0,6 | 984,9 |
| 19 | Petorca | 04-05-2026 04:30 | 7,6 | 68,9 | 0 | 0 | 347 | 0,6 | 984,8 |
| 18 | Petorca | 04-05-2026 04:15 | 8,9 | 66,4 | 0 | 0 | 51 | 0,6 | 984,7 |
| 17 | Petorca | 04-05-2026 04:00 | 8,5 | 67,2 | 0 | 0 | 18 | 0,6 | 984,7 |
| 16 | Petorca | 04-05-2026 03:45 | 7,2 | 70,7 | 0 | 0 | 25 | 0,6 | 984,8 |
| 15 | Petorca | 04-05-2026 03:30 | 7,9 | 68,1 | 0 | 0 | 21 | 0,6 | 985 |
| 14 | Petorca | 04-05-2026 03:15 | 8,8 | 66,7 | 0 | 0 | 343 | 0,6 | 985 |
| 13 | Petorca | 04-05-2026 03:00 | 8,4 | 66 | 0 | 0 | 66 | 0,6 | 985,2 |
| 12 | Petorca | 04-05-2026 02:45 | 9,7 | 61 | 0 | 0 | 37 | 0,6 | 985,4 |
| 11 | Petorca | 04-05-2026 02:30 | 9,5 | 61 | 0 | 0 | 17 | 0,6 | 985,6 |
| 10 | Petorca | 04-05-2026 02:15 | 9 | 63,3 | 0 | 0 | 39 | 0,6 | 985,9 |
| 9 | Petorca | 04-05-2026 02:00 | 8,8 | 65,4 | 0 | 0 | 17 | 0,6 | 985,9 |
| 8 | Petorca | 04-05-2026 01:45 | 8,7 | 66,1 | 0 | 0 | 25 | 0,6 | 986 |
| 7 | Petorca | 04-05-2026 01:30 | 8,6 | 67,3 | 0 | 0 | 358 | 0,6 | 986 |
| 6 | Petorca | 04-05-2026 01:15 | 8,5 | 68,4 | 0 | 0 | 24 | 0,6 | 986 |
| 5 | Petorca | 04-05-2026 01:00 | 8,9 | 67,1 | 0 | 0 | 345 | 0,6 | 986,1 |
| 4 | Petorca | 04-05-2026 00:45 | 9,6 | 63,8 | 0 | 0 | 20 | 0,6 | 986,2 |
| 3 | Petorca | 04-05-2026 00:30 | 9,5 | 63,7 | 0 | 0 | 312 | 0,6 | 986,4 |
| 2 | Petorca | 04-05-2026 00:15 | 11 | 59,8 | 0 | 0 | 45 | 0,6 | 986,5 |
| 1 | Petorca | 04-05-2026 00:00 | 10 | 63,5 | 0 | 0 | 323 | 0,6 | 986,7 |